Le nostre stazioni meteo in Italia

Pubblicità
Il mio iltempo24.it
Edinburgh/Royal Botanic Garden , Gran Bretagna (99180): Temperatura & dewpoint: 02.04.2020 00:00:00 - 08.04.2020 00:00:00 (BST)Edinburgh/Royal Botanic Garden , Gran Bretagna (99180): Temperatura -20cm & Temperatura -100cm: 02.04.2020 00:00:00 - 08.04.2020 00:00:00 (BST)Edinburgh/Royal Botanic Garden , Gran Bretagna (99180): precipitazioni: 02.04.2020 00:00:00 - 08.04.2020 00:00:00 (BST)
Data & Tempo tt [°C] td [°C] tt -20cm [°C] tt -100cm [°C] rr [mm]
08.04.2020 00:00:00 8,3 1,8 - - 0,0
07.04.2020 23:00:00 7,1 1,6 - - 0,0
07.04.2020 22:00:00 7,9 1,9 - - 0,0
07.04.2020 21:00:00 8,7 1,6 - - 0,0
07.04.2020 20:00:00 10,7 1,1 - - 0,0
07.04.2020 19:00:00 12,5 2,0 - - 0,0
07.04.2020 18:00:00 14,2 0,6 - - 0,0
07.04.2020 17:00:00 15,5 1,2 - - 0,0
07.04.2020 16:00:00 15,4 3,0 - - 0,0
07.04.2020 15:00:00 14,2 4,0 - - 0,0
07.04.2020 14:00:00 14,2 4,0 - - 0,0
07.04.2020 13:00:00 13,9 3,3 - - 0,0
07.04.2020 12:00:00 13,8 3,2 - - 0,0
07.04.2020 11:00:00 11,9 2,9 - - 0,0
07.04.2020 10:00:00 11,0 4,5 8,5 7,4 0,0
07.04.2020 09:00:00 8,7 4,7 - - 0,0
07.04.2020 08:00:00 6,1 4,7 - - 0,0
07.04.2020 07:00:00 2,7 1,4 - - 0,0
07.04.2020 06:00:00 3,5 1,9 - - 0,0
07.04.2020 05:00:00 3,6 1,8 - - 0,0
07.04.2020 04:00:00 4,8 2,3 - - 0,0
07.04.2020 03:00:00 4,5 2,3 - - 0,0
07.04.2020 02:00:00 4,5 2,6 - - 0,0
07.04.2020 01:00:00 4,1 1,6 - - 0,0
07.04.2020 00:00:00 4,9 1,4 - - 0,0
06.04.2020 23:00:00 6,6 2,0 - - 0,0
06.04.2020 22:00:00 7,8 2,3 - - 0,0
06.04.2020 21:00:00 8,2 1,4 - - 0,0
06.04.2020 20:00:00 10,4 1,4 - - 0,0
06.04.2020 19:00:00 11,7 1,2 - - 0,0
06.04.2020 18:00:00 12,5 1,6 - - 0,0
06.04.2020 17:00:00 13,4 1,1 - - 0,0
06.04.2020 16:00:00 13,6 1,7 - - 0,0
06.04.2020 15:00:00 13,7 3,9 - - 0,0
06.04.2020 14:00:00 13,7 3,0 - - 0,0
06.04.2020 13:00:00 12,4 3,4 - - 0,0
06.04.2020 12:00:00 11,6 3,0 - - 0,0
06.04.2020 11:00:00 11,8 2,6 - - 0,0
06.04.2020 10:00:00 12,7 5,0 8,2 7,2 0,0
06.04.2020 09:00:00 11,0 5,6 - - 0,0
06.04.2020 08:00:00 10,4 6,0 - - 0,0
06.04.2020 07:00:00 10,2 5,9 - - 0,0
06.04.2020 06:00:00 10,5 6,1 - - 0,0
06.04.2020 05:00:00 11,6 6,8 - - 0,0
06.04.2020 04:00:00 13,3 9,1 - - 0,0
06.04.2020 03:00:00 14,3 8,7 - - 0,0
06.04.2020 02:00:00 14,2 8,6 - - 0,0
06.04.2020 01:00:00 14,7 7,7 - - 0,0
06.04.2020 00:00:00 15,4 6,5 - - 0,0
05.04.2020 23:00:00 15,0 4,8 - - 0,0
05.04.2020 22:00:00 15,9 4,7 - - 0,0
05.04.2020 21:00:00 16,7 4,3 - - 0,0
05.04.2020 20:00:00 17,1 4,3 - - 0,0
05.04.2020 19:00:00 17,4 4,1 - - 0,0
05.04.2020 18:00:00 19,5 3,8 - - 0,0
05.04.2020 17:00:00 18,4 3,8 - - 0,0
05.04.2020 16:00:00 18,1 3,6 - - 0,0
05.04.2020 15:00:00 17,0 3,2 - - 0,0
05.04.2020 14:00:00 16,7 2,6 - - 0,0
05.04.2020 13:00:00 14,5 5,7 - - 0,0
05.04.2020 12:00:00 12,4 5,3 - - 0,0
05.04.2020 11:00:00 10,9 4,4 - - 0,0
05.04.2020 10:00:00 9,9 3,2 7,7 7,2 0,0
05.04.2020 09:00:00 9,0 2,6 - - 0,0
05.04.2020 08:00:00 8,9 2,9 - - 0,0
05.04.2020 07:00:00 7,8 2,6 - - 0,0
05.04.2020 06:00:00 8,2 2,5 - - 0,0
05.04.2020 05:00:00 9,2 2,8 - - 0,0
05.04.2020 04:00:00 8,5 3,3 - - 0,0
05.04.2020 03:00:00 8,3 3,5 - - 0,0
05.04.2020 02:00:00 8,9 3,2 - - 0,0
05.04.2020 01:00:00 7,8 2,9 - - 0,0
05.04.2020 00:00:00 8,8 3,5 - - 0,0
04.04.2020 23:00:00 8,5 3,4 - - 0,0
04.04.2020 22:00:00 9,7 4,1 - - 0,0
04.04.2020 21:00:00 9,9 3,7 - - 0,0
04.04.2020 20:00:00 10,0 2,7 - - 0,0
04.04.2020 19:00:00 10,3 2,8 - - 0,0
04.04.2020 18:00:00 10,6 2,9 - - 0,0
04.04.2020 17:00:00 10,9 3,3 - - 0,0
04.04.2020 16:00:00 11,7 3,9 - - 0,0
04.04.2020 15:00:00 11,8 4,4 - - 0,0
04.04.2020 14:00:00 11,3 4,2 - - 0,0
04.04.2020 13:00:00 10,7 2,7 - - 0,0
04.04.2020 12:00:00 10,1 4,1 - - 0,0
04.04.2020 11:00:00 10,0 3,9 - - 0,0
04.04.2020 10:00:00 9,1 3,7 7,5 7,2 0,0
04.04.2020 09:00:00 8,0 3,8 - - 0,0
04.04.2020 08:00:00 5,7 3,3 - - 0,0
04.04.2020 07:00:00 4,9 2,4 - - 0,0
04.04.2020 06:00:00 5,2 2,6 - - 0,0
04.04.2020 05:00:00 5,5 3,2 - - 0,0
04.04.2020 04:00:00 5,8 3,5 - - 0,0
04.04.2020 03:00:00 5,8 3,4 - - 0,0
04.04.2020 02:00:00 5,8 3,1 - - 0,0
04.04.2020 01:00:00 5,6 2,9 - - 0,0
04.04.2020 00:00:00 6,0 3,4 - - 0,0
03.04.2020 23:00:00 6,0 3,6 - - 0,0
03.04.2020 22:00:00 6,0 4,0 - - 0,0
03.04.2020 21:00:00 5,9 3,3 - - 0,0
03.04.2020 20:00:00 7,2 4,1 - - 0,0
03.04.2020 19:00:00 7,8 4,3 - - 0,0
03.04.2020 18:00:00 8,2 4,5 - - 0,2
03.04.2020 17:00:00 8,1 4,4 - - 0,0
03.04.2020 16:00:00 8,8 3,3 - - 0,0
03.04.2020 15:00:00 8,4 1,4 - - 0,0
03.04.2020 14:00:00 8,1 1,1 - - 0,0
03.04.2020 13:00:00 7,8 0,6 - - 0,0
03.04.2020 12:00:00 7,3 0,4 - - 0,0
03.04.2020 11:00:00 7,3 1,1 - - 0,0
03.04.2020 10:00:00 5,5 1,4 7,7 7,2 0,0
03.04.2020 09:00:00 4,7 1,4 - - 0,0
03.04.2020 08:00:00 3,2 0,7 - - 0,0
03.04.2020 07:00:00 1,4 -0,4 - - 0,0
03.04.2020 06:00:00 1,4 -1,2 - - 0,0
03.04.2020 05:00:00 1,8 -1,4 - - 0,0
03.04.2020 04:00:00 2,4 -1,5 - - 0,0
03.04.2020 03:00:00 2,0 -2,1 - - 0,0
03.04.2020 02:00:00 2,2 -1,9 - - 0,0
03.04.2020 01:00:00 2,3 -2,7 - - 0,0
03.04.2020 00:00:00 2,7 -3,8 - - 0,0
02.04.2020 23:00:00 3,3 -3,1 - - 0,0
02.04.2020 22:00:00 4,0 -3,3 - - 0,0
02.04.2020 21:00:00 4,7 -3,4 - - 0,0
02.04.2020 20:00:00 5,9 -3,1 - - 0,0
02.04.2020 19:00:00 7,6 -2,9 - - 0,0
02.04.2020 18:00:00 8,6 -1,9 - - 0,0
02.04.2020 17:00:00 9,0 -1,9 - - 0,0
02.04.2020 16:00:00 9,2 -1,1 - - 0,0
02.04.2020 15:00:00 10,5 0,7 - - 0,0
02.04.2020 14:00:00 9,8 -0,1 - - 0,0
02.04.2020 13:00:00 10,3 -0,6 - - 0,0
02.04.2020 12:00:00 9,6 1,1 - - 0,0
02.04.2020 11:00:00 9,3 4,5 - - 0,0
02.04.2020 10:00:00 9,8 4,1 8,0 7,0 0,0
02.04.2020 09:00:00 9,8 4,3 - - 0,0
02.04.2020 08:00:00 8,5 5,9 - - 0,0
02.04.2020 07:00:00 8,3 5,7 - - 0,0
02.04.2020 06:00:00 7,5 4,3 - - 0,0
02.04.2020 05:00:00 6,8 3,0 - - 0,0
02.04.2020 04:00:00 7,7 3,0 - - 0,0
02.04.2020 03:00:00 7,2 2,3 - - 0,0
02.04.2020 02:00:00 7,1 2,4 - - 0,0
02.04.2020 01:00:00 7,7 3,9 - - 0,0
02.04.2020 00:00:00 7,6 5,5 - - 0,0

tt = Temperatura
td = dewpoint
tt -20cm = Temperatura -20cm
tt -100cm = Temperatura -100cm
rr = precipitazioni

Stazioni seguenti

WeatherPro
AMSI
MeteoEarth